KE8WAY Weather Reports


Display with metric or nautical units.
time (UTC)temp
F
wind
direction
speed
MPH
gust
MPH
rain 1hr
in
rain 24hr
in
rain mn
in
humidity
%
barometer
mb
20260504110439 51 208 11.0 13.0 0.00 0.00 0.00 70 1006.0
20260504100355 50 218 10.0 11.0 0.00 0.00 0.00 70 1005.6
20260504081748 52 215 12.0 14.0 0.00 0.00 0.00 64 1006.4
20260504081245 51 222 13.0 15.0 0.00 0.00 0.00 66 1006.4
20260504080742 52 204 15.0 17.0 0.00 0.00 0.00 65 1006.3
20260504080238 52 225 14.0 17.0 0.00 0.00 0.00 63 1006.5
20260504070206 51 205 15.0 17.0 0.00 0.00 0.00 65 1007.1
20260504060126 51 212 14.0 16.0 0.00 0.00 0.00 64 1007.9
20260504050554 51 225 12.0 14.0 0.00 0.00 0.00 65 1008.7
20260504045548 52 191 13.0 15.0 0.00 0.00 0.00 63 1008.8
20260504045043 52 188 14.0 16.0 0.00 0.00 0.00 63 1008.8
20260504044541 52 210 15.0 16.0 0.00 0.00 0.00 63 1008.7
20260504044038 52 200 14.0 16.0 0.00 0.00 0.00 64 1008.5
20260504043535 52 194 13.0 15.0 0.00 0.00 0.00 63 1008.8
20260504043032 52 200 12.0 15.0 0.00 0.00 0.00 64 1009.0
20260504042529 52 203 14.0 16.0 0.00 0.00 0.00 64 1009.0
20260504042026 52 204 14.0 15.0 0.00 0.00 0.00 64 1009.0
20260504041522 52 189 14.0 16.0 0.00 0.00 0.00 63 1009.1
20260504041018 52 195 13.0 14.0 0.00 0.00 0.00 64 1009.2
20260504040516 52 217 12.0 14.0 0.00 0.00 0.00 65 1009.2
20260504040013 52 208 13.0 15.0 0.00 0.00 0.00 64 1009.3
20260504035509 52 210 13.0 15.0 0.00 0.00 0.00 65 1009.3
20260504035005 52 198 13.0 14.0 0.00 0.00 0.00 65 1009.4
20260504034503 51 176 13.0 15.0 0.00 0.00 0.00 66 1009.5
20260504034000 51 212 12.0 14.0 0.00 0.00 0.00 66 1009.5
20260504033458 51 188 17.0 21.0 0.00 0.00 0.00 66 1009.5
20260504032955 51 205 11.0 11.0 0.00 0.00 0.00 67 1009.4
20260504032452 51 201 14.0 15.0 0.00 0.00 0.00 67 1009.4
20260504031948 51 184 16.0 17.0 0.00 0.00 0.00 67 1009.5
20260504031445 51 198 17.0 18.0 0.00 0.00 0.00 67 1009.5
20260504030942 51 192 18.0 22.0 0.00 0.00 0.00 67 1009.6
20260504030439 51 191 17.0 20.0 0.00 0.00 0.00 68 1009.7
20260504025935 51 195 14.0 18.0 0.00 0.00 0.00 68 1009.7
20260504025432 51 193 13.0 14.0 0.00 0.00 0.00 68 1009.8
20260504024929 51 177 13.0 15.0 0.00 0.00 0.00 69 1009.6
20260504024426 51 196 13.0 16.0 0.00 0.00 0.00 68 1010.1
20260504023923 51 217 13.0 15.0 0.00 0.00 0.00 66 1010.1
20260504023420 51 209 11.0 11.0 0.00 0.00 0.00 68 1010.1
20260504022915 51 194 13.0 15.0 0.00 0.00 0.00 67 1010.1
20260504022412 51 210 9.0 10.0 0.00 0.00 0.00 68 1009.9
20260504021909 51 196 11.0 13.0 0.00 0.00 0.00 67 1010.2
20260504021406 51 211 11.0 13.0 0.00 0.00 0.00 67 1010.0
20260504020903 51 200 10.0 11.0 0.00 0.00 0.00 68 1009.9
20260504020359 51 192 11.0 13.0 0.00 0.00 0.00 67 1010.1
20260504015855 52 208 11.0 11.0 0.00 0.00 0.00 66 1010.1
20260504015352 51 221 10.0 11.0 0.00 0.00 0.00 67 1010.1
20260504014848 52 208 10.0 10.0 0.00 0.00 0.00 66 1010.3
20260504014344 52 201 12.0 13.0 0.00 0.00 0.00 66 1010.2
20260504013842 52 201 10.0 13.0 0.00 0.00 0.00 67 1010.1
20260504013340 52 207 8.0 9.0 0.00 0.00 0.00 67 1010.2
20260504012836 52 199 9.0 11.0 0.00 0.00 0.00 67 1010.3
20260504012334 52 220 10.0 11.0 0.00 0.00 0.00 67 1010.1
20260504011831 52 210 10.0 11.0 0.00 0.00 0.00 66 1010.0
20260504011327 52 205 10.0 11.0 0.00 0.00 0.00 66 1010.4
20260504010823 52 205 10.0 11.0 0.00 0.00 0.00 66 1010.3
20260504010319 52 208 10.0 11.0 0.00 0.00 0.00 66 1010.2
20260504005816 52 210 9.0 10.0 0.00 0.00 0.00 67 1010.3
20260504005313 52 220 12.0 13.0 0.00 0.00 0.00 66 1010.4
20260504004811 52 224 12.0 15.0 0.00 0.00 0.00 65 1010.2
20260504004308 52 224 12.0 14.0 0.00 0.00 0.00 65 1010.4
20260504003804 53 215 15.0 16.0 0.00 0.00 0.00 64 1010.3
20260504003301 53 211 13.0 14.0 0.00 0.00 0.00 64 1010.4
20260504002757 53 215 13.0 14.0 0.00 0.00 0.00 62 1010.5
20260504002255 53 206 14.0 16.0 0.00 0.00 0.00 62 1010.5
20260504001752 53 217 11.0 13.0 0.00 0.00 0.00 63 1010.7
20260504001249 53 206 17.0 17.0 0.00 0.00 0.00 62 1010.5
20260504000746 53 221 17.0 20.0 0.00 0.00 0.00 62 1010.6
20260504000243 53 229 17.0 20.0 0.00 0.00 0.00 62 1010.8
20260503235741 54 227 19.0 21.0 0.00 0.00 0.00 61 1010.6
20260503235238 54 236 19.0 21.0 0.00 0.00 0.00 61 1010.6
20260503234736 54 222 19.0 21.0 0.00 0.00 0.00 61 1010.6
20260503234234 54 238 21.0 23.0 0.00 0.00 0.00 60 1010.8
20260503233730 54 230 22.0 25.0 0.00 0.00 0.00 61 1010.8
20260503233225 55 232 24.0 27.0 0.00 0.00 0.00 59 1010.7
20260503232717 55 227 28.0 30.0 0.00 0.00 0.00 58 1010.6
20260503232214 55 212 27.0 30.0 0.00 0.00 0.00 57 1010.6
20260503231713 57 216 23.0 27.0 0.00 0.00 0.00 56 1010.6
20260503231209 57 227 21.0 23.0 0.00 0.00 0.00 53 1010.4
20260503230705 57 238 28.0 31.0 0.00 0.00 0.00 52 1010.3
20260503230203 58 226 26.0 29.0 0.00 0.00 0.00 51 1010.2
20260503225659 59 244 25.0 26.0 0.00 0.00 0.00 49 1010.1
20260503225154 59 224 27.0 30.0 0.00 0.00 0.00 48 1010.3
20260503224652 59 234 27.0 30.0 0.00 0.00 0.00 47 1010.3
20260503224149 60 219 23.0 25.0 0.00 0.00 0.00 44 1010.2
20260503223647 61 208 23.0 25.0 0.00 0.00 0.00 37 1010.1
20260503223143 60 228 25.0 27.0 0.00 0.00 0.00 36 1010.1
20260503222641 60 217 24.0 27.0 0.00 0.00 0.00 37 1010.3
20260503222138 60 239 23.0 24.0 0.00 0.00 0.00 38 1010.3
20260503221637 61 230 34.0 38.0 0.00 0.00 0.00 36 1010.0
20260503221134 61 221 27.0 29.0 0.00 0.00 0.00 36 1010.3
20260503220630 62 230 27.0 31.0 0.00 0.00 0.00 36 1010.1
20260503220127 61 216 17.0 20.0 0.00 0.00 0.00 38 1010.1
20260503215624 61 225 20.0 23.0 0.00 0.00 0.00 38 1010.3
20260503215120 62 231 28.0 31.0 0.00 0.00 0.00 36 1010.1
20260503214619 62 224 23.0 26.0 0.00 0.00 0.00 37 1010.2
20260503214114 63 235 26.0 30.0 0.00 0.00 0.00 35 1010.3
20260503213609 62 222 24.0 26.0 0.00 0.00 0.00 35 1010.2
20260503213104 62 224 26.0 27.0 0.00 0.00 0.00 35 1010.4
20260503212602 62 193 20.0 23.0 0.00 0.00 0.00 36 1010.5
20260503212059 62 242 22.0 24.0 0.00 0.00 0.00 34 1010.2
20260503211556 63 233 29.0 31.0 0.00 0.00 0.00 33 1010.4
20260503211052 62 227 26.0 30.0 0.00 0.00 0.00 34 1010.5
20260503210549 63 224 30.0 32.0 0.00 0.00 0.00 33 1010.3
20260503210044 62 218 24.0 25.0 0.00 0.00 0.00 33 1010.5
20260503205542 63 222 24.0 26.0 0.00 0.00 0.00 33 1010.6
20260503205038 62 209 28.0 34.0 0.00 0.00 0.00 34 1010.3
20260503204535 63 235 29.0 37.0 0.00 0.00 0.00 34 1010.4
20260503204032 63 211 31.0 33.0 0.00 0.00 0.00 34 1010.3
20260503203529 63 216 30.0 32.0 0.00 0.00 0.00 34 1010.6
20260503203026 63 216 26.0 31.0 0.00 0.00 0.00 35 1010.5
20260503202524 63 210 28.0 32.0 0.00 0.00 0.00 32 1010.7
20260503202022 63 225 24.0 26.0 0.00 0.00 0.00 33 1010.8
20260503201520 63 226 30.0 33.0 0.00 0.00 0.00 33 1010.9
20260503201017 63 215 22.0 26.0 0.00 0.00 0.00 35 1010.6
20260503200513 63 218 23.0 24.0 0.00 0.00 0.00 35 1011.1
20260503200010 62 232 19.0 22.0 0.00 0.00 0.00 36 1011.0
20260503195507 63 242 26.0 32.0 0.00 0.00 0.00 33 1011.1
20260503195003 63 221 25.0 26.0 0.00 0.00 0.00 35 1011.0
20260503194501 63 217 24.0 26.0 0.00 0.00 0.00 36 1011.2
20260503193955 63 219 27.0 30.0 0.00 0.00 0.00 32 1011.2
20260503193451 63 215 24.0 27.0 0.00 0.00 0.00 35 1011.1
20260503192947 63 210 24.0 25.0 0.00 0.00 0.00 36 1011.1
20260503192444 62 217 24.0 27.0 0.00 0.00 0.00 36 1011.3
20260503191939 63 220 26.0 29.0 0.00 0.00 0.00 36 1011.2
20260503191437 62 212 28.0 32.0 0.00 0.00 0.00 34 1011.5
20260503190933 63 211 26.0 29.0 0.00 0.00 0.00 37 1011.5
20260503190431 63 225 29.0 33.0 0.00 0.00 0.00 34 1011.4
20260503185927 63 223 25.0 30.0 0.00 0.00 0.00 33 1011.6
20260503185424 62 228 23.0 26.0 0.00 0.00 0.00 34 1011.8
20260503184923 63 245 27.0 31.0 0.00 0.00 0.00 34 1011.7
20260503184420 63 207 15.0 18.0 0.00 0.00 0.00 32 1011.7
20260503183916 63 253 24.0 31.0 0.00 0.00 0.00 32 1012.0
20260503183413 63 227 23.0 25.0 0.00 0.00 0.00 35 1012.1
20260503182910 63 218 25.0 26.0 0.00 0.00 0.00 35 1011.9
20260503182409 62 222 28.0 30.0 0.00 0.00 0.00 35 1011.8
20260503181906 62 232 26.0 29.0 0.00 0.00 0.00 33 1012.0
20260503181403 62 231 24.0 25.0 0.00 0.00 0.00 32 1012.4
20260503180859 62 223 24.0 26.0 0.00 0.00 0.00 35 1012.0
20260503180357 62 227 21.0 24.0 0.00 0.00 0.00 34 1012.1
20260503175853 62 209 24.0 27.0 0.00 0.00 0.00 35 1012.2
20260503175352 61 230 25.0 27.0 0.00 0.00 0.00 35 1012.5
20260503174847 62 235 24.0 26.0 0.00 0.00 0.00 35 1012.6
20260503174345 62 264 23.0 26.0 0.00 0.00 0.00 35 1012.7
20260503173840 62 230 24.0 27.0 0.00 0.00 0.00 38 1012.6
20260503173336 62 241 26.0 29.0 0.00 0.00 0.00 34 1012.6
20260503172833 62 224 20.0 23.0 0.00 0.00 0.00 37 1012.7
20260503172331 61 253 22.0 24.0 0.00 0.00 0.00 32 1012.9
20260503171826 61 231 19.0 22.0 0.00 0.00 0.00 38 1012.8
20260503171324 61 216 27.0 32.0 0.00 0.00 0.00 36 1013.1
20260503170821 62 228 22.0 24.0 0.00 0.00 0.00 38 1013.0
20260503170317 60 212 23.0 25.0 0.00 0.00 0.00 39 1013.0
20260503150710 55 237 18.0 20.0 0.00 0.00 0.00 48 1014.3
20260503150206 55 216 15.0 17.0 0.00 0.00 0.00 52 1014.5
20260503140125 50 235 22.0 25.0 0.00 0.00 0.00 56 1014.8
20260503131054 48 230 17.0 18.0 0.00 0.00 0.00 57 1014.6
20260503130551 48 232 17.0 18.0 0.00 0.00 0.00 59 1014.9